Voltar ao catálogo

BREEZE-KM R/B

AtivoPO
NORAD 40556·ROCKET BODY·🇷🇺 Russia

Lançado Mar 31, 2015 de Plesetsk Cosmodrome

Loading…

Próximas Passagens (próximas 24 horas)

TLE

AtualizadoSource: Space-Track

Época: Sep 14, 2026, 15:42 UTC

1 40556U 15020E   26257.65437022  .00000026  00000-0  60430-4 0  9994
2 40556  82.4913 146.3550 0214456 198.7626 160.5485 12.80561932535609

Acompanhe BREEZE-KM R/B em tempo real com AllMySat

Download on the App Store